Location: Wildcat Hills Observatory
(41.6350°N, 103.6812°W)
Time: 10:35:14
(UTC-06:00)

Daily predictions for brighter satellites

Satellite Brightness Start Highest point End
(mag) Time Altitude Azimuth Time Altitude Azimuth Time Altitude Azimuth
FENGYUN 3A 3.9 19:54:25 10° SE 19:59:33 50° ENE 20:04:42 10° N
Meteor 1-23 Rocket 4.5 19:54:13 10° NNW 19:59:53 80° W 20:05:36 10° S
Cosmos 1656 4.2 19:55:51 10° S 20:00:55 36° ESE 20:05:57 10° NE
Helios 1B rocket 2.8 19:57:31 10° N 20:01:37 73° WNW 20:05:43 10° SSW
Cosmos 1544 Rocket 3.6 19:58:53 10° S 20:03:16 89° W 20:07:43 10° N
Okean 2 3.4 19:59:26 10° N 20:03:38 88° E 20:07:46 10° S
CZ-2D R/B 3.7 20:00:21 10° SE 20:04:01 43° ENE 20:07:44 10° N
Cosmos 1934 Rocket 4.0 20:00:13 10° S 20:06:21 80° E 20:12:37 10° N
Cosmos 1898 Rocket 4.3 20:02:31 10° N 20:07:19 34° ENE 20:12:04 10° SE
DELTA 2 R/B (1) 3.8 20:02:02 10° W 20:07:32 62° SSW 20:13:01 10° ESE
Resurs 01 Rocket 2.2 20:03:20 10° S 20:07:43 63° WSW 20:12:08 10° NNW
Cosmos 2227 Rocket 2.2 20:04:36 10° NNW 20:10:19 86° ENE 20:15:58 10° SSE
Cosmos 1500 4.4 20:07:38 10° SE 20:10:32 22° E 20:13:29 10° NE
FengYun 1-2 T 4.4 20:08:34 10° SSE 20:14:12 85° WSW 20:19:51 10° NNW
Meteor 1-29 3.9 20:11:09 10° N 20:14:32 53° WNW 20:17:55 10° SSW
OAO 2 Rocket 4.0 20:14:01 10° WSW 20:18:38 38° S 20:22:50 12° ESE
Meteor 1-12 Rocket 4.4 20:13:16 10° S 20:18:52 58° E 20:24:36 10° NNE
Cosmos 468 Rocket 4.5 20:16:29 10° SSE 20:21:08 36° ESE 20:25:48 10° NE
Cosmos 2297 Rocket 2.2 20:19:42 10° NNW 20:25:24 82° ENE 20:31:03 10° SSE
Cosmos 1346 Rocket 3.4 20:21:55 10° NNW 20:25:50 58° W 20:29:44 10° S
Cosmos 2082 3.9 20:20:37 10° NNW 20:26:14 76° WSW 20:31:50 10° SSE
ALOS 2.3 20:22:25 10° SSE 20:27:06 88° WSW 20:31:48 10° NNW
USA 186 1.5 20:24:32 10° SSE 20:27:34 64° ENE 20:30:24 10° N
Cosmos 1939 Rocket 4.2 20:25:01 14° ESE 20:27:36 24° ENE 20:30:56 10° NNE
OTV 4 2.6 20:25:58 10° WSW 20:28:01 17° SSW 20:30:00 10° SSE
Cosmos 1814 Rocket 4.4 20:27:49 10° S 20:32:46 40° ESE 20:37:43 10° NE
Cosmos 1515 3.9 20:30:20 10° N 20:34:05 51° E 20:37:39 11° SSE
Cosmos 1461 4.4 20:35:51 10° NW 20:39:29 32° WSW 20:43:00 10° S
Cosmos 1825 Rocket 4.4 20:40:56 10° NNE 20:44:53 31° ENE 20:46:51 22° ESE
SL-24 R/B - RUBIN 2 4.4 20:39:13 10° SSW 20:45:04 88° WNW 20:51:39 10° NNE
Tiangong 1 0.9 20:46:25 10° WNW 20:49:32 87° NNE 20:50:47 33° E
Cosmos 1743 3.3 20:48:12 20° SE 20:50:20 36° E 20:53:57 10° NNE
Cosmos 2173 Rocket 4.2 20:45:41 10° SSE 20:51:47 50° E 20:57:51 10° NNE
BREEZE-M DEB (TANK) 2.8 20:49:50 10° NW 20:51:52 32° NNE 20:53:27 21° ENE
RESURS DK-1 2.5 20:49:27 10° NNW 20:53:32 56° ENE 20:55:34 27° SE
Cosmos 1953 Rocket 4.5 20:51:54 10° NNE 20:55:53 31° ENE 20:57:08 26° ESE
H-2A R/B 2.8 20:57:55 27° E 20:59:02 32° ENE 21:02:44 10° N
Cosmos 1697 Rocket 2.6 20:55:12 10° SSW 21:00:51 84° ESE 21:06:32 10° NNE
Cosmos 1626 Rocket 4.3 20:57:52 10° NNW 21:02:09 52° W 21:06:22 10° S
Cosmos 1066 Rocket 4.2 20:56:45 10° N 21:02:29 84° E 21:07:45 13° S
Iridium 4 Rocket 3.5 20:58:25 10° N 21:03:26 73° W 21:07:57 10° S
YAOGAN 11 4.1 21:01:48 18° SSE 21:05:06 85° ENE 21:09:35 10° NNW
Envisat 3.1 21:03:38 24° SE 21:06:36 60° ENE 21:11:36 10° N
Cosmos 2100 Rocket 3.9 21:00:53 10° S 21:07:08 73° E 21:13:20 10° NNE
Cosmos 2084 3.9 21:03:25 10° NW 21:07:25 55° WSW 21:09:46 24° S
Cosmos 2298 Rocket 4.3 21:02:41 10° NNW 21:07:59 67° WSW 21:12:23 15° S
Cosmos 1937 Rocket 3.4 21:03:47 10° NNW 21:09:06 82° ENE 21:12:16 25° SSE
SL-16 R/B 3.6 21:13:10 20° ENE 21:13:10 20° ENE 21:15:46 10° NE
Cosmos 1758 Rocket 4.0 21:10:25 10° N 21:14:32 40° ENE 21:15:05 38° E
ARGOS 4.2 21:16:23 26° E 21:17:27 28° ENE 21:21:58 10° N
Cosmos 2061 Rocket 3.9 21:11:13 10° S 21:17:31 79° E 21:23:47 10° N
Cosmos 990 Rocket 3.9 21:14:34 10° NNW 21:19:51 76° ENE 21:22:04 35° SSE
deb Chang Zheng 4 3.7 21:16:22 10° NNE 21:20:44 53° E 21:21:50 42° SSE
Cosmos 1842 4.0 21:18:09 10° N 21:21:25 35° ENE 21:21:25 35° ENE
Lacrosse 5 1.9 21:17:06 10° NW 21:22:09 71° SW 21:24:05 37° SSE
Cosmos 1980 Rocket 2.1 21:18:44 10° SSW 21:24:23 80° ESE 21:30:07 10° NNE
H-2A R/B 3.7 21:27:29 17° ENE 21:27:29 17° ENE 21:30:30 10° NNE
MetOp-B 4.3 21:28:11 41° ESE 21:29:41 55° ENE 21:34:54 10° N
SPOT 5 2.9 21:28:37 45° SE 21:29:55 62° ENE 21:34:40 10° N
ERS-1 Rocket 3.4 21:28:22 21° S 21:31:42 61° WSW 21:36:41 10° NNW
Lacrosse 5 rocket 3.7 21:30:34 10° W 21:32:07 12° WSW 21:33:40 10° SW
CZ-3C R/B 4.3 21:05:09 10° W 21:32:17 25° SW 21:38:21 15° S
Cosmos 1666 3.4 21:35:55 39° NE 21:35:55 39° NE 21:38:34 10° NNE
Cosmos 1459 Rocket 4.1 21:30:06 10° SSW 21:36:07 72° W 21:42:15 10° N
Cosmos 1725 Rocket 4.0 21:37:54 40° SSE 21:39:57 58° E 21:46:04 10° NNE
Cosmos 2058 Rocket 3.0 21:41:00 66° E 21:41:03 66° E 21:45:32 10° NNE
Cosmos 1763 Rocket 3.5 21:40:00 10° SSW 21:45:06 79° WNW 21:50:12 10° NNE
Cosmos 1606 Rocket 3.8 21:43:37 34° SSW 21:45:25 70° W 21:49:52 10° N
Cosmos 2098 Rocket 3.9 21:41:42 28° S 21:45:29 73° E 21:51:11 10° NNE
SPOT 1/Viking Rocket 3.7 21:45:54 50° E 21:46:20 52° ENE 21:51:23 10° N
YAOGAN 6 3.2 21:50:43 52° N 21:50:43 52° N 21:53:38 10° N
Cosmos 2263 Rocket 3.2 21:45:36 10° N 21:50:30 31° NE 21:50:51 30° ENE
Terra 3.5 21:54:47 21° NE 21:54:47 21° NE 21:57:32 10° NNE
Cosmos 1340 3.6 21:51:21 10° NNW 21:54:57 42° W 21:55:15 42° WSW
Cosmos 1125 Rocket 3.4 21:50:37 10° NNW 21:55:48 64° ENE 21:55:59 63° E
Meteor 1-15 Rocket 4.2 21:56:11 54° SSE 21:57:32 75° E 22:03:25 10° NNE
Cosmos 2322 Rocket 2.3 21:58:38 54° ENE 21:58:38 54° ENE 22:03:24 10° NNE
Cosmos 2233 Rocket 4.0 22:03:44 55° E 22:03:44 55° E 22:09:47 10° NNE
Milstar 3 Cent rocket 4.5 21:48:48 10° W 22:06:59 41° SSW 22:10:48 33° SSE
USA 215 3.9 22:06:04 33° ENE 22:08:18 44° NNE 22:14:27 10° NW
Cosmos 1726 Rocket 4.5 22:07:22 37° WSW 22:08:30 45° WNW 22:12:45 10° N
Cosmos 841 Rocket 4.1 22:03:32 10° SW 22:08:40 56° WNW 22:13:49 10° NNE
Meteor 2-9 Rocket 4.2 22:08:47 50° SSW 22:10:15 75° W 22:15:40 10° N
Cosmos 540 Rocket 4.3 22:22:20 39° NNE 22:22:20 39° NNE 22:25:36 10° NNE
ASTEX 1 4.4 22:19:02 10° N 22:23:47 44° WNW 22:25:07 36° WSW
H-2A R/B 4.1 22:35:03 20° W 22:35:06 20° W 22:38:13 10° NW
Cosmos 372 Rocket 4.4 22:30:34 10° NNW 22:34:40 58° NNW 22:34:40 58° NNW
SL-16 R/B 2.8 22:54:57 52° WNW 22:55:11 52° WNW 23:00:44 10° NNE
ARGOS 4.2 22:57:55 39° W 22:57:55 39° W 23:02:33 10° NNW
Cosmos 1844 Rocket 4.3 22:57:43 10° N 23:01:08 24° NNE 23:01:08 24° NNE
H-2A R/B 3.3 23:08:08 37° NW 23:08:08 37° NW 23:11:15 10° NNW
Cosmos 2360 Rocket 3.7 23:11:52 28° NNE 23:11:52 28° NNE 23:14:26 10° NNE
Terra 3.9 23:33:41 24° NW 23:33:41 24° NW 23:35:48 10° NNW
Cosmos 2263 Rocket 3.7 23:29:21 10° NW 23:32:32 29° WNW 23:32:32 29° WNW
Cosmos 2322 Rocket 4.3 23:40:22 19° W 23:42:21 22° NW 23:46:42 10° N
USA 215 4.1 23:53:25 41° WNW 23:53:25 41° WNW 23:57:38 10° NW
